Edinburgh, IN

10:08 PM EST on February 13, 2016 (GMT -0500)
Himsel Army Airfld, Nineveh,

Weather History for K1II - April, 2014

Change the Weather History Date:

Monday, April 28, 2014

  Actual Average (KGEZ) Record (KGEZ)
Temperature  
Mean Temperature 61 °F 57 °F  
Max Temperature 69 °F 68 °F - ()
Min Temperature 53 °F 46 °F - ()
Degree Days  
Heating Degree Days 4 9  
Month to date heating degree days 361  
Since 1 July heating degree days 5244  
Cooling Degree Days 0 0  
Month to date cooling degree days 0  
Year to date cooling degree days 1  
Growing Degree Days 11 (Base 50)    
Moisture  
Dew Point 55 °F    
Average Humidity 79    
Maximum Humidity 94    
Minimum Humidity 60    
Precipitation  
Precipitation 0.00 in 0.18 in - ()
Month to date precipitation 3.92  
Year to date precipitation 12.10  
Sea Level Pressure  
Sea Level Pressure 29.68 in    
Wind  
Wind Speed 9 mph (SE)    
Max Wind Speed 22 mph    
Max Gust Speed 31 mph    
Visibility 9 miles    
Events Rain , Thunderstorm    
T = Trace of Precipitation, MM = Missing Value Source: NWS Daily Summary

Daily Weather History Graph

Daily Weather History Graph

Search for Another Location

Airport or City:

Trip Planner

Search our weather history database for the weather conditions in past years. The results will help you decide how hot, cold, wet, or windy it might be!

Date:

Astronomy

Apr. 28, 2014 Rise Set
Actual Time 6:49 AM EDT 8:34 PM EDT
Civil Twilight 6:20 AM EDT 9:03 PM EDT
Nautical Twilight 5:45 AM EDT 9:38 PM EDT
Astronomical Twilight 5:08 AM EDT 10:15 PM EDT
Moon 6:26 AM EDT (4/28) 8:12 PM EDT (4/28)
Length of Visible Light 14h 42m
Length of Day
13h 45m
Waning Crescent, 0% of the Moon is Illuminated
Apr 28
Waning Crescent
Apr 29
New
May 6
First Quarter
May 14
Full
May 21
Last Quarter

Hourly Weather History & Observations

Time (EDT) Temp. Dew Point Humidity Pressure Visibility Wind Dir Wind Speed Gust Speed Precip Events Conditions
12:15 AM 64.4 °F 55.4 °F 73% 29.83 in 10.0 mi SSE 10.4 mph - N/A   Scattered Clouds
12:35 AM 64.4 °F 55.4 °F 73% 29.83 in 10.0 mi SE 8.1 mph - N/A   Scattered Clouds
12:55 AM 64.4 °F 55.4 °F 73% 29.82 in 10.0 mi ESE 6.9 mph - N/A   Scattered Clouds
1:15 AM 64.4 °F 55.4 °F 73% 29.82 in 10.0 mi ESE 8.1 mph - N/A   Overcast
1:35 AM 64.4 °F 55.4 °F 73% 29.82 in 10.0 mi ESE 6.9 mph - N/A   Overcast
1:55 AM 64.4 °F 55.4 °F 73% 29.83 in 10.0 mi SE 4.6 mph - N/A   Overcast
2:15 AM 64.4 °F 55.4 °F 73% 29.80 in 10.0 mi ESE 8.1 mph - N/A   Overcast
2:35 AM 62.6 °F 55.4 °F 77% 29.77 in 10.0 mi East 5.8 mph - N/A   Overcast
2:55 AM 62.6 °F 55.4 °F 77% 29.76 in 10.0 mi ESE 6.9 mph - N/A   Overcast
3:15 AM 62.6 °F 55.4 °F 77% 29.76 in 10.0 mi ESE 6.9 mph - N/A   Scattered Clouds
3:35 AM 62.6 °F 55.4 °F 77% 29.78 in 10.0 mi SE 6.9 mph - N/A   Mostly Cloudy
3:55 AM 62.6 °F 55.4 °F 77% 29.76 in 10.0 mi ESE 6.9 mph - N/A   Overcast
4:15 AM 62.6 °F 51.8 °F 68% 29.76 in 10.0 mi ESE 6.9 mph - N/A   Overcast
4:35 AM 60.8 °F 51.8 °F 72% 29.75 in 7.0 mi East 11.5 mph - N/A Rain Rain
4:55 AM 55.4 °F 51.8 °F 88% 29.73 in 4.0 mi East 6.9 mph - N/A Rain , Thunderstorm Thunderstorms and Rain
5:15 AM 55.4 °F 51.8 °F 88% 29.72 in 4.0 mi East 3.5 mph - N/A Rain , Thunderstorm Heavy Thunderstorms and Rain
5:35 AM 55.4 °F 51.8 °F 88% 29.72 in 2.0 mi Calm Calm - N/A Rain , Thunderstorm Thunderstorms and Rain
5:55 AM 55.4 °F 51.8 °F 88% 29.70 in 4.0 mi East 4.6 mph - N/A Rain , Thunderstorm Rain
6:15 AM 53.6 °F 51.8 °F 94% 29.68 in 3.0 mi ENE 9.2 mph - N/A Rain , Thunderstorm Rain
6:35 AM 53.6 °F 51.8 °F 94% 29.68 in 10.0 mi East 9.2 mph 17.3 mph N/A Rain Light Rain
6:55 AM 53.6 °F 51.8 °F 94% 29.66 in 10.0 mi East 8.1 mph - N/A Rain , Thunderstorm Light Thunderstorms and Rain
7:15 AM 53.6 °F 51.8 °F 94% 29.66 in 10.0 mi East 8.1 mph - N/A Rain Light Rain
7:35 AM 55.4 °F 51.8 °F 88% 29.68 in 2.0 mi Calm Calm - N/A Rain Heavy Rain
7:55 AM 53.6 °F 51.8 °F 94% 29.69 in 4.0 mi NNE 4.6 mph - N/A Rain Rain
8:15 AM 53.6 °F 51.8 °F 94% 29.70 in 4.0 mi North 5.8 mph - N/A Rain Rain
8:35 AM 53.6 °F 51.8 °F 94% 29.71 in 4.0 mi North 5.8 mph - N/A Rain , Thunderstorm Heavy Thunderstorms and Rain
8:55 AM 53.6 °F 51.8 °F 94% 29.72 in 5.0 mi NNW 8.1 mph - N/A Rain Light Rain
9:15 AM 53.6 °F 51.8 °F 94% 29.73 in 7.0 mi NNW 8.1 mph - N/A Rain , Thunderstorm Light Thunderstorms and Rain
9:55 AM 53.6 °F 51.8 °F 94% 29.72 in 7.0 mi NE 4.6 mph - N/A   Overcast
10:15 AM 53.6 °F 51.8 °F 94% 29.66 in 5.0 mi ENE 15.0 mph - N/A   Overcast
10:35 AM 55.4 °F 53.6 °F 94% 29.66 in 5.0 mi ESE 8.1 mph - N/A   Overcast
10:55 AM 57.2 °F 55.4 °F 94% 29.65 in 7.0 mi East 9.2 mph - N/A   Overcast
11:15 AM 59.0 °F 57.2 °F 94% 29.66 in 7.0 mi ESE 6.9 mph - N/A   Overcast
11:35 AM 60.8 °F 59.0 °F 94% 29.68 in 10.0 mi SSE 8.1 mph - N/A   Overcast
12:15 PM 64.4 °F 60.8 °F 88% 29.69 in 10.0 mi South 13.8 mph 20.7 mph N/A   Overcast
12:35 PM 66.2 °F 60.8 °F 83% 29.67 in 10.0 mi South 8.1 mph - N/A   Mostly Cloudy
1:15 PM 68.0 °F 60.8 °F 78% 29.60 in 10.0 mi SSE 15.0 mph 24.2 mph N/A   Scattered Clouds
1:35 PM 68.0 °F 59.0 °F 73% 29.65 in 10.0 mi South 20.7 mph 31.1 mph N/A   Clear
1:55 PM 68.0 °F 60.8 °F 78% 29.65 in 10.0 mi South 15.0 mph 25.3 mph N/A   Clear
2:15 PM 69.8 °F 59.0 °F 68% 29.65 in 10.0 mi South 17.3 mph 23.0 mph N/A   Clear
2:35 PM 69.8 °F 57.2 °F 64% 29.68 in 7.0 mi SSW 13.8 mph 21.9 mph N/A   Clear
2:55 PM 69.8 °F 57.2 °F 64% 29.70 in 10.0 mi SSW 16.1 mph 23.0 mph N/A   Scattered Clouds
3:15 PM 69.8 °F 57.2 °F 64% 29.70 in 10.0 mi SSW 15.0 mph 26.5 mph N/A   Clear
3:35 PM 69.8 °F 55.4 °F 60% 29.71 in 10.0 mi SSW 21.9 mph 27.6 mph N/A   Scattered Clouds
3:55 PM 68.0 °F 55.4 °F 64% 29.69 in 10.0 mi SSW 13.8 mph 28.8 mph N/A Rain Light Rain
4:15 PM 68.0 °F 55.4 °F 64% 29.69 in 10.0 mi SSW 10.4 mph 25.3 mph N/A Rain Light Rain
4:35 PM 68.0 °F 55.4 °F 64% 29.67 in 10.0 mi South 15.0 mph 20.7 mph N/A   Mostly Cloudy
4:55 PM 64.4 °F 55.4 °F 73% 29.65 in 10.0 mi South 12.7 mph 21.9 mph N/A Rain Light Rain
5:15 PM 64.4 °F 55.4 °F 73% 29.63 in 10.0 mi SSE 10.4 mph - N/A   Scattered Clouds
5:35 PM 66.2 °F 57.2 °F 73% 29.62 in 10.0 mi SSE 13.8 mph 18.4 mph N/A   Clear
5:55 PM 68.0 °F 57.2 °F 68% 29.62 in 10.0 mi South 16.1 mph 19.6 mph N/A   Clear
6:15 PM 66.2 °F 55.4 °F 68% 29.62 in 10.0 mi South 13.8 mph 23.0 mph N/A   Clear
6:35 PM 66.2 °F 55.4 °F 68% 29.62 in 10.0 mi SSE 9.2 mph 19.6 mph N/A   Clear
6:55 PM 66.2 °F 55.4 °F 68% 29.63 in 10.0 mi SSE 15.0 mph 18.4 mph N/A   Clear
7:15 PM 64.4 °F 55.4 °F 73% 29.63 in 10.0 mi SSE 11.5 mph 18.4 mph N/A   Scattered Clouds
7:35 PM 64.4 °F 55.4 °F 73% 29.62 in 10.0 mi SSE 11.5 mph 16.1 mph N/A   Mostly Cloudy
7:55 PM 64.4 °F 53.6 °F 68% 29.62 in 10.0 mi SSE 11.5 mph - N/A   Scattered Clouds
8:15 PM 62.6 °F 53.6 °F 72% 29.62 in 10.0 mi SSE 9.2 mph - N/A   Clear
8:35 PM 62.6 °F 53.6 °F 72% 29.60 in 10.0 mi SE 8.1 mph - N/A   Clear
8:55 PM 62.6 °F 55.4 °F 77% 29.60 in 10.0 mi SE 10.4 mph - N/A   Scattered Clouds
9:15 PM 62.6 °F 55.4 °F 77% 29.59 in 10.0 mi SE 9.2 mph - N/A   Mostly Cloudy
9:35 PM 62.6 °F 55.4 °F 77% 29.59 in 10.0 mi SE 12.7 mph 18.4 mph N/A   Scattered Clouds
9:55 PM 62.6 °F 55.4 °F 77% 29.61 in 10.0 mi SSE 9.2 mph - N/A   Light Drizzle
10:15 PM 60.8 °F 55.4 °F 82% 29.59 in 10.0 mi SE 15.0 mph 20.7 mph N/A Rain , Thunderstorm Thunderstorms and Rain
10:55 PM 60.8 °F 57.2 °F 88% 29.59 in 7.0 mi SE 10.4 mph 18.4 mph N/A Rain , Thunderstorm Thunderstorms and Rain
11:15 PM 60.8 °F 57.2 °F 88% 29.61 in 7.0 mi SSE 13.8 mph - N/A Rain , Thunderstorm Rain
11:35 PM 60.8 °F 57.2 °F 88% 29.59 in 10.0 mi SE 12.7 mph 18.4 mph N/A Rain , Thunderstorm Light Thunderstorms and Rain
11:55 PM 60.8 °F 57.2 °F 88% 29.58 in 10.0 mi SE 11.5 mph 20.7 mph N/A Rain Rain